Weather History for Indianapolis, IN

Change the Weather History Date:

Saturday, June 15, 2013

  Actual Average Record
Temperature  
Mean Temperature 73 °F 72 °F  
Max Temperature 83 °F 82 °F 94 °F (1952)
Min Temperature 62 °F 62 °F 45 °F (1917)
Degree Days  
Heating Degree Days 0 0  
Month to date heating degree days 9 13  
Since 1 June heating degree days 9 13  
Since 1 July heating degree days 5405 5375  
Cooling Degree Days 8 8  
Month to date cooling degree days 72 90  
Year to date cooling degree days 201 174  
Since 1 June cooling degree days 72 90  
Growing Degree Days 22 (Base 50)    
Moisture  
Dew Point 59 °F    
Average Humidity 65    
Maximum Humidity 84    
Minimum Humidity 45    
Precipitation  
Precipitation 0.00 in 0.13 in 1.82 in (1875)
Month to date precipitation 1.48 2.12  
Year to date precipitation 23.31 19.52  
Snow  
Snow 0.00 in 0.00 in 0.00 in ()
Month to date snowfall 0.0 0.0  
Since 1 June snowfall 0.0 0.0  
Since 1 July snowfall 34.5 25.9  
Snow Depth 0.00 in    
Sea Level Pressure  
Sea Level Pressure 30.01 in    
Wind  
Wind Speed 8 mph (SSW)    
Max Wind Speed 17 mph    
Max Gust Speed 22 mph    
Visibility 10 miles    
Events      
T = Trace of Precipitation, MM = Missing Value Source: NWS Daily Summary

Daily Weather History Graph

Daily Weather History Graph

Search for Another Location

Airport:

Trip Planner

Search our weather history database for the weather conditions in past years. The results will help you decide how hot, cold, wet, or windy it might be!

Date:

Astronomy

Jun. 15, 2013 Rise Set
Actual Time 6:16 AM EDT 9:14 PM EDT
Civil Twilight 5:44 AM EDT 9:47 PM EDT
Nautical Twilight 5:02 AM EDT 10:28 PM EDT
Astronomical Twilight 4:14 AM EDT 11:16 PM EDT
Moon 12:49 PM EDT (6/15) 12:51 AM EDT (6/15)
Length of Visible Light 16h 03m
Length of Day
14h 58m
Waxing Crescent, 39% of the Moon is Illuminated
Jun 15
Waxing Crescent
Jun 16
First Quarter
Jun 23
Full
Jun 30
Last Quarter
Jul 8
New

Hourly Weather History & Observations

Time (EDT) Temp. Heat Index Dew Point Humidity Pressure Visibility Wind Dir Wind Speed Gust Speed Precip Events Conditions
12:54 AM 69.1 °F - 55.9 °F 63% 30.03 in 10.0 mi Calm Calm - N/A   Scattered Clouds
1:54 AM 68.0 °F - 55.0 °F 63% 30.03 in 10.0 mi Calm Calm - N/A   Scattered Clouds
2:54 AM 66.9 °F - 55.0 °F 66% 30.06 in 10.0 mi Calm Calm - N/A   Clear
3:54 AM 64.0 °F - 55.9 °F 75% 30.05 in 10.0 mi ESE 4.6 mph - N/A   Scattered Clouds
4:54 AM 64.0 °F - 57.0 °F 78% 30.04 in 10.0 mi SE 3.5 mph - N/A   Scattered Clouds
5:54 AM 62.1 °F - 57.0 °F 84% 30.05 in 10.0 mi SSE 5.8 mph - N/A   Mostly Cloudy
6:54 AM 63.0 °F - 55.9 °F 78% 30.07 in 10.0 mi SSE 3.5 mph - N/A   Overcast
7:54 AM 64.9 °F - 57.9 °F 78% 30.08 in 10.0 mi SSE 3.5 mph - N/A   Overcast
8:54 AM 69.1 °F - 60.1 °F 73% 30.09 in 10.0 mi SSW 4.6 mph - N/A   Overcast
9:54 AM 73.0 °F - 60.1 °F 64% 30.08 in 10.0 mi SSW 8.1 mph - N/A   Overcast
10:54 AM 75.0 °F - 61.0 °F 62% 30.04 in 10.0 mi South 6.9 mph - N/A   Mostly Cloudy
11:54 AM 77.0 °F - 59.0 °F 54% 29.99 in 10.0 mi SSE 11.5 mph 20.7 mph N/A   Mostly Cloudy
12:54 PM 81.0 °F 81.6 °F 60.1 °F 49% 30.01 in 10.0 mi South 12.7 mph - N/A   Mostly Cloudy
1:54 PM 80.1 °F 80.9 °F 60.1 °F 50% 30.01 in 10.0 mi SW 12.7 mph - N/A   Mostly Cloudy
2:54 PM 82.0 °F 82.7 °F 61.0 °F 49% 30.00 in 10.0 mi SSW 13.8 mph - N/A   Mostly Cloudy
3:54 PM 81.0 °F 81.3 °F 59.0 °F 47% 29.99 in 10.0 mi SW 13.8 mph - N/A   Overcast
4:54 PM 82.0 °F 82.4 °F 60.1 °F 47% 30.00 in 10.0 mi WSW 15.0 mph - N/A   Mostly Cloudy
5:54 PM 80.1 °F 80.6 °F 57.9 °F 47% 29.99 in 10.0 mi WSW 16.1 mph - N/A   Overcast
6:54 PM 80.1 °F 81.1 °F 61.0 °F 52% 29.94 in 10.0 mi SW 8.1 mph - N/A   Scattered Clouds
7:54 PM 78.1 °F - 60.1 °F 54% 29.94 in 10.0 mi SSW 9.2 mph - N/A   Scattered Clouds
8:54 PM 75.0 °F - 60.1 °F 60% 29.95 in 10.0 mi SSW 6.9 mph - N/A   Mostly Cloudy
9:54 PM 73.0 °F - 61.0 °F 66% 29.95 in 10.0 mi SSW 5.8 mph - N/A   Overcast
10:54 PM 73.0 °F - 61.0 °F 66% 29.95 in 10.0 mi SSW 4.6 mph - N/A   Overcast
11:54 PM 73.0 °F - 61.0 °F 66% 29.95 in 10.0 mi SSW 4.6 mph - N/A   Overcast